User: anonymous   Login
Location: Oshawa
(43.9000°N, 78.8670°W)
Time: 06:19:10
(UTC-04:00)
Language:

ITAMSAT 1 - Orbit

View from above orbital plane
View from above orbital plane
View from above satellite
View from above satellite

Ground track
Ground track

The orbit data is extracted from the following two-line orbital elements,

1 22826U 93061D   14296.42577010  .00000299  00000-0  13297-3 0  5606
2 22826 098.6713 242.1030 0007803 273.9155 086.1135 14.30070201 99244
Epoch (UTC): 23 October 2014 10:13:06
Eccentricity: 0.0007803
inclination: 98.6713°
perigee height: 786 km
apogee height: 797 km
right ascension of ascending node: 242.1030°
argument of perigee: 273.9155°
revolutions per day: 14.30070201
mean anomaly at epoch: 86.1135°
orbit number at epoch: 9924

The dashed part of the orbit path shows where the satellite is in the earth's shadow,  

DLR